Greenville, ME

7:53 AM EST on November 15, 2019 (GMT -0500)
Greenville

Weather History for KGNR - September, 2019

Change the Weather History Date:

Saturday, September 28, 2019

  Actual Average (WUND) Record (WUND)
Temperature  
Mean Temperature 56 °F -  
Max Temperature 61 °F - - (-1)
Min Temperature 51 °F - - (-1)
Degree Days  
Heating Degree Days 9    
Growing Degree Days 6 (Base 50)    
Moisture  
Dew Point 53 °F    
Average Humidity 88    
Maximum Humidity 96    
Minimum Humidity 77    
Precipitation  
Precipitation 0.01 in - - ()
Sea Level Pressure  
Sea Level Pressure 30.02 in    
Wind  
Wind Speed 4 mph ()    
Max Wind Speed 12 mph    
Max Gust Speed -    
Averages and records for this station are not official NWS values.
T = Trace of Precipitation, MM = Missing Value Source: Averaged Metar Reports

Daily Weather History Graph

Daily Weather History Graph

Search for Another Location

Airport or City:

Astronomy

Sep. 28, 2019 Rise Set
Actual Time 6:32 AM EDT 6:24 PM EDT
Civil Twilight 6:02 AM EDT 6:54 PM EDT
Nautical Twilight 5:28 AM EDT 7:28 PM EDT
Astronomical Twilight 4:53 AM EDT 8:03 PM EDT
Moon 6:00 AM EDT (9/28) 6:50 PM EDT (9/28)
Length of Visible Light 12h 51m
Length of Day
11h 52m
Waning Crescent, 0% of the Moon is Illuminated
Sep 28
Waning Crescent
Sep 28
New
Oct 5
First Quarter
Oct 13
Full
Oct 21
Last Quarter

Hourly Weather History & Observations

Time (EDT) Temp. Dew Point Humidity Pressure Visibility Wind Dir Wind Speed Gust Speed Precip Events Conditions
12:56 AM 54.0 °F 46.9 °F 77% 30.08 in - Variable 3.5 mph - N/A   Unknown
1:56 AM 53.1 °F 48.0 °F 83% 30.07 in - Calm Calm - N/A   Unknown
2:56 AM 51.1 °F 48.0 °F 89% 30.05 in - ESE 4.6 mph - N/A   Unknown
3:56 AM 51.1 °F 48.0 °F 89% 30.03 in - SE 3.5 mph - N/A   Unknown
4:56 AM 52.0 °F 48.9 °F 89% 30.05 in - Calm Calm - N/A   Unknown
5:56 AM 51.1 °F 48.9 °F 92% 30.06 in - SE 6.9 mph - N/A   Unknown
6:56 AM 51.1 °F 48.9 °F 92% 30.06 in - Variable 4.6 mph - N/A   Unknown
7:56 AM 51.1 °F 50.0 °F 96% 30.06 in - SE 6.9 mph - N/A   Unknown
8:56 AM 52.0 °F 50.0 °F 93% 30.05 in - SE 6.9 mph - N/A   Unknown
10:56 AM 54.0 °F 52.0 °F 93% 30.01 in - SE 8.1 mph - N/A   Unknown
11:56 AM 59.0 °F 53.1 °F 81% 29.99 in - SE 11.5 mph - N/A   Unknown
12:56 PM 60.1 °F 53.1 °F 78% 29.97 in - SSE 8.1 mph - N/A   Unknown
1:56 PM 59.0 °F 53.1 °F 81% 29.96 in - Variable 6.9 mph - N/A   Unknown
2:56 PM 59.0 °F 54.0 °F 83% 29.97 in - SE 4.6 mph - N/A   Unknown
3:56 PM 60.1 °F 55.0 °F 83% 29.98 in - Calm Calm - N/A   Unknown
4:56 PM 60.1 °F 55.0 °F 83% 29.98 in - Calm Calm - N/A   Unknown
5:56 PM 59.0 °F 55.9 °F 90% 29.99 in - Calm Calm - 0.01 in   Unknown
6:56 PM 59.0 °F 57.0 °F 93% 30.00 in - Calm Calm - N/A   Unknown
7:56 PM 59.0 °F 57.0 °F 93% 30.00 in - Calm Calm - N/A   Unknown
8:56 PM 60.1 °F 57.0 °F 90% 30.00 in - Calm Calm - N/A   Unknown
9:56 PM 61.0 °F 57.9 °F 90% 30.01 in - WNW 4.6 mph - N/A   Unknown
10:56 PM 61.0 °F 57.9 °F 90% 30.01 in - NW 8.1 mph - N/A   Unknown
11:56 PM 60.1 °F 57.9 °F 93% 30.01 in - NW 8.1 mph - N/A   Unknown